EAST SUPERIOR NM NE Marquette, MI (45004)

Conditions for Monday

Daily
Weekly
Monthly
Marine Data Graph

Marine & Boating Location Search

Enter a coastal zip code for marine weather.

General Information

Location: 47.585 North -86.585 West
Buoy Type: 3-meter foam buoy
Buoy Hull: 3DV04
Payload: ARES payload
Owned by: NDBC
Windspeed: Measured by obtained from anemometer
Sea Surface: Measured by Intake

Weather and Wave Data

Time Temp Humidity Wind Dominant Wave Wind Wave Wave Swell Pressure
  Air
(°F)
Water
(°F)
  Dir Speed
(kts)
Speed
(mph)
Period
(sec)
Height
(ft)
Range
(ft)
Period
(sec)
Height
(ft)
Range
(ft)
Period
(sec)
Height
(ft)
Range
(ft)
Atmo.
(in)
Tend.
(in)
20:00 60 56 88 West 25.3 29.1 - - - - - - 29.64 -
20:10 60 56 86 West 25.3 29.1 - - - - - - 29.65 -
20:20 60 56 83 West 25.3 29.1 - - - - - - 29.66 -
20:30 60 56 82 West 23.3 26.8 - - - - - - 29.66 -
20:40 60 56 81 West 23.3 26.8 - - - - - - 29.67 -
20:50 56
-
- 21.4 24.6 - - - - - -
-
-
21:00 60 56 78 West 21.4 24.6 - - - - - - 29.68 -
21:20 60 56 76 West 21.4 24.6 - - - - - - 29.69 -
21:30 59 55 79 WNW 21.4 24.6 - - - - - - 29.70 -
21:40 59 55 79 WNW 21.4 24.6 - - - - - - 29.70 -
21:50 59
-
79 WNW 19.4 22.4 5 4.92 exactly 4.9 5 4.92 4.10 - 5.74 - - - 29.71 -
22:10 58 55 84 West 17.5 20.1 - - - - - - 29.73 -
22:20 58 55 83 West 15.6 17.9 - - - - - - 29.73 -
22:40 58 55 87 West 15.6 17.9 - - - - - - 29.74 -
22:50 59 55 85 West 17.5 20.1 6 4.27 exactly 4.3 6 4.92 4.10 - 5.74 - - - 29.75 -
23:00 59
-
85 West 15.6 17.9 - - - - - - 29.76 -
23:10 58
-
90 West 13.6 15.7 - - - - - - 29.77 -
23:20 58 55 90 West 11.7 13.4 - - - - - - 29.77 -
23:30 58 55 90 WSW 9.7 11.2 - - - - - - 29.78 -
23:40 58 55 89 WSW 9.7 11.2 - - - - - - 29.78 -
00:20 58 54 89 WSW 7.8 8.9 - - - - - - 29.78 -
00:30 58 54 90 West 9.7 11.2 - - - - - - 29.78 -
00:40 54
-
- 9.7 11.2 - - - - - -
-
-
00:50 58 54 86 WSW 11.7 13.4 6 4.27 exactly 4.3 5 3.28 2.46 - 4.10 6 3.28 2.46 - 4.10 29.78 -
01:00 58 54 86 West 11.7 13.4 - - - - - - 29.78 -
01:10 59 55 82 West 13.6 15.7 - - - - - - 29.78 -
01:20 59 55 82 West 13.6 15.7 - - - - - - 29.78 -
01:30 59 55 80 West 13.6 15.7 - - - - - - 29.79 -
01:40 59 55 79 West 13.6 15.7 - - - - - - 29.79 -
02:10 59
-
75 West 13.6 15.7 - - - - - - 29.80 -
02:20 58 55 77 West 11.7 13.4 - - - - - - 29.80 -
02:30 59 54 73 West 11.7 13.4 - - - - - - 29.81 -
02:40 58 54 76 West 9.7 11.2 - - - - - - 29.81 -
03:10 58 54 76 West 11.7 13.4 - - - - - - 29.81 -
03:20 58 54 77 West 11.7 13.4 - - - - - - 29.81 -
03:30 58 54 77 West 11.7 13.4 - - - - - - 29.81 -
03:40 58 54 77 West 9.7 11.2 - - - - - - 29.82 -
03:50 58 54 78 West 13.6 15.7 5 3.28 exactly 3.3 3 1.64 0.82 - 2.46 5 3.28 2.46 - 4.10 29.82 -
04:00 58 54 78 West 11.7 13.4 - - - - - - 29.83 -
04:10 58 54 80 WSW 11.7 13.4 - - - - - - 29.83 -
04:20 58 54 81 WSW 11.7 13.4 - - - - - - 29.83 -
04:50 58 54 78 WSW 11.7 13.4 6 3.28 exactly 3.3 5 3.28 2.46 - 4.10 6 1.64 0.82 - 2.46 29.84 -
05:10 58 54 75 WSW 13.6 15.7 - - - - - - 29.85 -
05:40 57 54 79 SW 9.7 11.2 - - - - - - 29.86 -
05:50 57
-
82 SW 9.7 11.2 5 3.28 exactly 3.3 4 1.64 0.82 - 2.46 5 3.28 2.46 - 4.10 29.86 -
06:00 58 54 79 WSW 13.6 15.7 - - - - - - 29.86 -
06:10 58 54 82 WSW 13.6 15.7 - - - - - - 29.86 -
06:20 58 54 82 WSW 11.7 13.4 - - - - - - 29.87 -
06:30 58 54 81 WSW 13.6 15.7 - - - - - - 29.87 -
06:40 58 54 80 WSW 13.6 15.7 - - - - - - 29.87 -
06:50 58
-
80 WSW 13.6 15.7 5 2.62 exactly 2.6 5 3.28 2.46 - 4.10 - - - 29.88 -
07:10 57
-
85 WSW 11.7 13.4 - - - - - - 29.88 -
07:20 54
-
- 11.7 13.4 - - - - - -
-
-
07:40 58 54 84 WSW 13.6 15.7 - - - - - - 29.89 -
08:00 58 54 86 WSW 13.6 15.7 - - - - - - 29.90 -
08:30 58 54 86 WSW 13.6 15.7 - - - - - - 29.91 -
08:40 58 54 85 WSW 13.6 15.7 - - - - - - 29.91 -
09:00 58
-
85 WSW 13.6 15.7 - - - - - - 29.91 -
09:30 58 54 86 WSW 9.7 11.2 - - - - - - 29.92 -
09:40 58 54 85 West 9.7 11.2 - - - - - - 29.93 -
10:10 58 54 86 WSW 13.6 15.7 - - - - - - 29.93 -
10:20 58 54 86 WSW 13.6 15.7 - - - - - - 29.93 -
10:30 58 54 86 WSW 11.7 13.4 - - - - - - 29.93 -
10:40 57 54 90 WSW 11.7 13.4 - - - - - - 29.93 -
10:50 54
-
- 11.7 13.4 5 2.95 exactly 3.0 5 3.28 2.46 - 4.10 - - -
-
-
11:20 57 54 91 SW 9.7 11.2 - - - - - - 29.94 -
11:30 54
-
- 9.7 11.2 - - - - - -
-
-
11:40 58 54 86 SW 11.7 13.4 - - - - - - 29.94 -
11:50 58 54 86 SW 11.7 13.4 5 2.95 exactly 3.0 5 3.28 2.46 - 4.10 8 1.64 0.82 - 2.46 29.94 -
12:00 58
-
86 SW 11.7 13.4 - - - - - - 29.94 -
12:10 58 54 86 SW 11.7 13.4 - - - - - - 29.94 -
12:30 58 54 86 SW 9.7 11.2 - - - - - - 29.95 -
13:00 58 55 88 SSW 11.7 13.4 - - - - - - 29.95 -
13:10 58 55 89 SW 9.7 11.2 - - - - - - 29.96 -
13:20 58 55 88 SW 11.7 13.4 - - - - - - 29.96 -
13:30 58 55 89 SW 11.7 13.4 - - - - - - 29.96 -
13:40 58 55 89 SW 11.7 13.4 - - - - - - 29.96 -
13:50 58 55 89 SW 9.7 11.2 5 2.62 exactly 2.6 5 3.28 2.46 - 4.10 - - - 29.96 -
14:10 58 55 87 SSW 9.7 11.2 - - - - - - 29.96 -
14:20 58 55 87 SSW 9.7 11.2 - - - - - - 29.96 -
14:50 58 55 85 South 7.8 8.9 6 2.62 exactly 2.6 4 1.64 0.82 - 2.46 6 1.64 0.82 - 2.46 29.96 -
15:10 59 55 79 SW 9.7 11.2 - - - - - - 29.96 -
15:30 59 55 77 SSW 11.7 13.4 - - - - - - 29.96 -
15:40 59 55 78 SSW 9.7 11.2 - - - - - - 29.96 -
15:50 59 55 77 SW 9.7 11.2 5 2.62 exactly 2.6 4 1.64 0.82 - 2.46 5 1.64 0.82 - 2.46 29.96 -
16:00 59 55 77 SSW 9.7 11.2 - - - - - - 29.96 -
16:20 59 56 77 SSW 11.7 13.4 - - - - - - 29.95 -
16:30 60 56 73 South 9.7 11.2 - - - - - - 29.95 -
16:40 59 56 76 SSW 9.7 11.2 - - - - - - 29.95 -
16:50 59 56 75 SSW 9.7 11.2 6 2.30 exactly 2.3 4 1.64 0.82 - 2.46 6 1.64 0.82 - 2.46 29.95 -
17:20 60 56 70 South 9.7 11.2 - - - - - - 29.95 -
17:30 60 56 71 South 9.7 11.2 - - - - - - 29.95 -
17:40 59 56 75 South 9.7 11.2 - - - - - - 29.94 -
17:50 59 56 75 South 9.7 11.2 6 2.30 exactly 2.3 4 1.64 0.82 - 2.46 6 1.64 0.82 - 2.46 29.94 -
18:10 60 56 67 South 11.7 13.4 - - - - - - 29.93 -
18:20 60 56 67 South 11.7 13.4 - - - - - - 29.93 -
18:40 59 56 73 South 11.7 13.4 - - - - - - 29.92 -
18:50 59 56 73 South 11.7 13.4 6 2.30 exactly 2.3 5 1.64 0.82 - 2.46 6 1.64 0.82 - 2.46 29.92 -
19:10 60 56 67 South 9.7 11.2 - - - - - - 29.92 -
19:20 60 56 66 South 9.7 11.2 - - - - - - 29.92 -
19:30 60 56 66 South 9.7 11.2 - - - - - - 29.92 -
19:40 60 56 66 South 7.8 8.9 - - - - - - 29.92 -
19:50 59 56 71 SSW 5.8 6.7 6 2.30 exactly 2.3 4 1.64 0.82 - 2.46 6 1.64 0.82 - 2.46 29.93 -
20:10 59 56 71 SSW 3.9 4.5 - - - - - - 29.93 -
20:20 59 56 71 South 5.8 6.7 - - - - - - 29.92 -
20:40 59 56 71 SSW 5.8 6.7 - - - - - - 29.92 -
20:50 60 56 67 South 5.8 6.7 6 2.30 exactly 2.3 4 1.64 0.82 - 2.46 6 1.64 0.82 - 2.46 29.92 -
21:10 61 55 62 South 9.7 11.2 - - - - - - 29.91 -
21:20 61 55 64 South 9.7 11.2 - - - - - - 29.92 -
21:30 61 55 65 South 7.8 8.9 - - - - - - 29.92 -
21:40 61 55 68 South 7.8 8.9 - - - - - - 29.92 -
22:00 59 55 77 South 7.8 8.9 - - - - - - 29.92 -0.04
22:10 59 55 77 South 7.8 8.9 - - - - - - 29.92 -
22:40 59 55 82 SSW 9.7 11.2 - - - - - - 29.92 -
22:50 59 55 82 SSW 9.7 11.2 5 2.30 exactly 2.3 4 1.64 0.82 - 2.46 5 1.64 0.82 - 2.46 29.92 -
23:10 59 55 83 SSW 9.7 11.2 - - - - - - 29.93 -
23:20 59 55 82 SSW 9.7 11.2 - - - - - - 29.93 -
23:40 60 55 77 SSW 11.7 13.4 - - - - - - 29.93 -
00:10 58 55 86 SSW 9.7 11.2 - - - - - - 29.93 -
00:30 59 55 79 SSW 9.7 11.2 - - - - - - 29.94 -
00:40 60 55 74 SSW 9.7 11.2 - - - - - - 29.94 -
00:50 59 55 79 SSW 11.7 13.4 5 2.30 exactly 2.3 4 1.64 0.82 - 2.46 5 1.64 0.82 - 2.46 29.94 -
01:00 60 55 75 SSW 11.7 13.4 - - - - - - 29.94 -
01:10 60 55 76 SSW 11.7 13.4 - - - - - - 29.94 -
01:20 61 55 71 SSW 13.6 15.7 - - - - - - 29.94 -
01:40 59 55 78 SSW 9.7 11.2 - - - - - - 29.94 -
02:00 58 55 84 SSW 9.7 11.2 - - - - - - 29.94 -
02:10 59 55 81 SSW 11.7 13.4 - - - - - - 29.94 -
02:20 59 55 81 SSW 11.7 13.4 - - - - - - 29.94 -
02:30 59 55 82 SSW 11.7 13.4 - - - - - - 29.94 -
02:40 60 55 78 SSW 11.7 13.4 - - - - - - 29.94 -
02:50 59
-
82 SSW 11.7 13.4 4 1.97 exactly 2.0 4 1.64 0.82 - 2.46 - - - 29.94 -
03:00 59
-
83 SSW 11.7 13.4 - - - - - - 29.94 -
03:20 60 55 81 SW 13.6 15.7 - - - - - - 29.94 -
03:30 60 55 81 SW 13.6 15.7 - - - - - - 29.95 -
03:40 59 55 85 SW 11.7 13.4 - - - - - - 29.95 -

Detailed Wave Spectra

Time Water Depth Wave Height Spectral Peak Period Average Wave Period Sampling Interval Wave Record
22:00 781 ft 4.82 ft 5.0 sec 4.2 sec 0.6 sec 2400 sec
00:00 781 ft 4.10 ft 5.9 sec 4.4 sec 0.6 sec 2400 sec
02:00 781 ft 3.54 ft 5.9 sec 4.5 sec 0.6 sec 2400 sec
05:00 781 ft 3.15 ft 5.6 sec 4.3 sec 0.6 sec 2400 sec
07:00 781 ft 2.79 ft 5.0 sec 4.0 sec 0.6 sec 2400 sec
11:00 781 ft 2.89 ft 4.5 sec 3.6 sec 0.6 sec 2400 sec
15:00 781 ft 2.49 ft 5.6 sec 3.9 sec 0.6 sec 2400 sec
17:00 781 ft 2.40 ft 5.6 sec 4.0 sec 0.6 sec 2400 sec
18:00 781 ft 2.30 ft 5.6 sec 4.1 sec 0.6 sec 2400 sec
20:00 781 ft 2.40 ft 5.9 sec 4.4 sec 0.6 sec 2400 sec
21:00 781 ft 2.33 ft 5.9 sec 4.4 sec 0.6 sec 2400 sec
23:00 781 ft 2.23 ft 4.8 sec 4.3 sec 0.6 sec 2400 sec